N7ZEF Weather Reports


time (UTC)temp
F
wind
direction
speed
knots
gust
knots
rain 1hr
in
rain 24hr
in
rain mn
in
humidity
%
barometer
mb
20260906220525 84 153 3.5 10.4 0.00 0.00 0.00 11 1020.9
20260906215524 84 173 5.2 9.6 0.00 0.00 0.00 11 1020.9
20260906214523 82 183 7.0 13.9 0.00 0.00 0.00 13 1021.1
20260906213521 83 167 6.1 10.4 0.00 0.00 0.00 13 1021.3
20260906212520 83 121 6.1 10.4 0.00 0.00 0.00 12 1021.4
20260906211518 84 212 6.1 13.0 0.00 0.00 0.00 11 1021.4
20260906210517 85 205 2.6 11.3 0.00 0.00 0.00 10 1021.5
20260906205516 84 294 7.0 10.4 0.00 0.00 0.00 10 1021.7
20260906204514 83 231 7.0 7.8 0.00 0.00 0.00 11 1021.7
20260906203513 83 215 4.3 10.4 0.00 0.00 0.00 12 1021.8
20260906202511 82 236 4.3 18.2 0.00 0.00 0.00 12 1022.2
20260906201510 83 193 2.6 14.8 0.00 0.00 0.00 12 1022.3
20260906200509 82 231 5.2 10.4 0.00 0.00 0.00 12 1022.4
20260906195507 82 188 4.3 9.6 0.00 0.00 0.00 13 1022.5
20260906194506 82 141 4.3 14.8 0.00 0.00 0.00 13 1022.8
20260906193505 82 193 6.1 12.2 0.00 0.00 0.00 13 1022.9
20260906192503 83 127 3.5 10.4 0.00 0.00 0.00 13 1023.1
20260906191502 82 201 7.0 19.1 0.00 0.00 0.00 13 1023.3
20260906190500 83 200 4.3 12.2 0.00 0.00 0.00 12 1023.4
20260906185459 81 134 5.2 17.4 0.00 0.00 0.00 14 1023.6
20260906184458 81 172 6.1 11.3 0.00 0.00 0.00 14 1023.6
20260906183456 81 249 5.2 12.2 0.00 0.00 0.00 14 1023.7
20260906182455 80 224 7.0 12.2 0.00 0.00 0.00 15 1023.9
20260906181454 81 188 1.7 9.6 0.00 0.00 0.00 15 1024.2
20260906180452 80 212 5.2 10.4 0.00 0.00 0.00 15 1024.3
20260906175451 80 221 3.5 14.8 0.00 0.00 0.00 15 1024.6
20260906174449 80 248 7.0 10.4 0.00 0.00 0.00 15 1025.0
20260906173448 80 146 2.6 9.6 0.00 0.00 0.00 15 1025.2
20260906172447 80 229 0.9 5.2 0.00 0.00 0.00 16 1025.2
20260906171445 79 314 2.6 10.4 0.00 0.00 0.00 16 1025.3
20260906170444 79 198 1.7 8.7 0.00 0.00 0.00 17 1025.5
20260906165443 78 212 2.6 8.7 0.00 0.00 0.00 17 1025.5
20260906164441 78 180 0.9 6.1 0.00 0.00 0.00 18 1025.6
20260906163440 77 208 5.2 6.1 0.00 0.00 0.00 18 1025.6
20260906162438 76 253 0.9 2.6 0.00 0.00 0.00 21 1025.7
20260906161437 75 45 0.9 2.6 0.00 0.00 0.00 24 1025.7
20260906160436 73 31 0.0 3.5 0.00 0.00 0.00 27 1025.9
20260906155434 71 329 1.7 2.6 0.00 0.00 0.00 29 1026.0
20260906154433 69 256 0.0 3.5 0.00 0.00 0.00 32 1026.0
20260906153432 68 41 0.0 3.5 0.00 0.00 0.00 34 1026.0
20260906152430 67 338 0.9 4.3 0.00 0.00 0.00 35 1026.0
20260906151429 66 10 0.9 2.6 0.00 0.00 0.00 36 1026.1
20260906150427 65 21 0.0 0.0 0.00 0.00 0.00 39 1026.2
20260906145426 63 17 0.0 2.6 0.00 0.00 0.00 40 1026.2
20260906144425 61 83 0.0 0.0 0.00 0.00 0.00 47 1026.2
20260906143423 60 83 0.0 0.0 0.00 0.00 0.00 48 1026.2
20260906142422 58 83 0.0 0.9 0.00 0.00 0.00 48 1026.2
20260906141421 57 68 0.0 1.7 0.00 0.00 0.00 52 1026.4
20260906140419 55 356 0.0 0.0 0.00 0.00 0.00 57 1026.2
20260906135418 53 204 0.0 0.0 0.00 0.00 0.00 60 1026.2
20260906134416 51 204 0.0 0.9 0.00 0.00 0.00 62 1026.1
20260906133415 50 264 0.0 0.0 0.00 0.00 0.00 64 1026.0
20260906132414 48 264 0.0 0.0 0.00 0.00 0.00 66 1026.0
20260906131412 48 264 0.0 0.0 0.00 0.00 0.00 67 1025.9
20260906130411 47 264 0.0 0.0 0.00 0.00 0.00 68 1025.9
20260906125410 47 264 0.0 0.0 0.00 0.00 0.00 68 1025.7
20260906124408 47 264 0.0 0.0 0.00 0.00 0.00 66 1025.6
20260906123407 48 264 0.0 0.0 0.00 0.00 0.00 66 1025.6
20260906122405 47 264 0.0 0.0 0.00 0.00 0.00 66 1025.6
20260906121404 47 264 0.0 0.0 0.00 0.00 0.00 65 1025.7
20260906120403 48 264 0.0 0.0 0.00 0.00 0.00 64 1025.6
20260906115401 49 264 0.0 0.0 0.00 0.00 0.00 63 1025.7
20260906114400 49 264 0.0 0.0 0.00 0.00 0.00 62 1025.9
20260906113359 49 264 0.0 0.0 0.00 0.00 0.00 62 1025.7
20260906112357 50 155 0.0 0.0 0.00 0.00 0.00 62 1025.6
20260906111356 50 155 0.0 0.0 0.00 0.00 0.00 61 1025.6
20260906110354 50 155 0.0 0.0 0.00 0.00 0.00 60 1025.5
20260906105353 51 155 0.0 0.9 0.00 0.00 0.00 61 1025.5
20260906104352 51 138 0.0 0.0 0.00 0.00 0.00 60 1025.3
20260906103350 51 138 0.0 0.0 0.00 0.00 0.00 59 1025.2
20260906102349 51 138 0.0 0.0 0.00 0.00 0.00 59 1025.1
20260906101348 51 138 0.0 0.0 0.00 0.00 0.00 58 1025.2
20260906100346 51 138 0.0 0.0 0.00 0.00 0.00 59 1025.1
20260906095345 51 138 0.0 0.0 0.00 0.00 0.00 57 1025.0
20260906094343 52 138 0.0 0.0 0.00 0.00 0.00 58 1025.1
20260906093342 51 138 0.0 0.0 0.00 0.00 0.00 57 1025.1
20260906092341 52 138 0.0 0.0 0.00 0.00 0.00 55 1025.0
20260906091339 52 138 0.0 0.0 0.00 0.00 0.00 53 1025.0
20260906090338 53 138 0.0 0.0 0.00 0.00 0.00 52 1024.8
20260906085337 54 138 0.0 0.0 0.00 0.00 0.00 51 1024.8
20260906084335 55 138 0.0 0.0 0.00 0.00 0.00 50 1024.8
20260906083334 55 138 0.0 0.0 0.00 0.00 0.00 48 1024.6
20260906082332 55 138 0.0 0.0 0.00 0.00 0.00 48 1024.6
20260906081331 55 138 0.0 0.0 0.00 0.00 0.00 48 1024.6
20260906080330 55 138 0.0 0.0 0.00 0.00 0.00 48 1024.6
20260906075328 55 138 0.0 0.0 0.00 0.00 0.00 47 1024.6
20260906074327 56 138 0.0 0.0 0.00 0.00 0.00 46 1024.6
20260906073325 57 138 0.0 0.0 0.00 0.00 0.00 46 1024.6
20260906072324 56 138 0.0 0.0 0.00 0.00 0.00 45 1024.6
20260906071323 56 138 0.0 0.0 0.00 0.00 0.00 46 1024.6
20260906070321 56 138 0.0 0.0 0.00 0.00 0.00 45 1024.7
20260906065320 57 138 0.0 0.0 0.00 0.00 0.00 45 1024.6
20260906064319 58 138 0.0 0.0 0.00 0.00 0.00 44 1024.7
20260906063317 59 138 0.0 0.0 0.00 0.00 0.00 43 1024.7
20260906062316 59 138 0.0 0.0 0.00 0.00 0.00 41 1024.6
20260906061315 60 138 0.0 0.0 0.00 0.00 0.00 41 1024.6
20260906060313 60 138 0.0 0.0 0.00 0.00 0.00 40 1024.6
20260906055312 61 138 0.0 0.0 0.00 0.00 0.00 40 1024.5
20260906054310 61 138 0.0 0.0 0.00 0.00 0.00 39 1024.5
20260906053309 61 103 0.0 1.7 0.00 0.00 0.00 39 1024.5
20260906052308 61 228 0.0 0.0 0.00 0.00 0.00 40 1024.5
20260906051306 62 228 0.0 0.0 0.00 0.00 0.00 39 1024.5
20260906050305 61 228 0.0 0.0 0.00 0.00 0.00 39 1024.3
20260906045306 62 228 0.0 0.0 0.00 0.00 0.00 38 1024.2
20260906044302 63 193 0.9 1.7 0.00 0.00 0.00 38 1024.2
20260906043301 63 207 0.0 0.0 0.00 0.00 0.00 37 1024.2
20260906042259 63 198 0.0 0.0 0.00 0.00 0.00 37 1024.2
20260906041258 64 228 0.0 0.0 0.00 0.00 0.00 37 1024.2
20260906040257 64 228 0.0 0.0 0.00 0.00 0.00 37 1024.2
20260906035255 64 228 0.0 0.0 0.00 0.00 0.00 36 1024.1
20260906034254 65 228 0.0 0.0 0.00 0.00 0.00 35 1024.1
20260906033252 65 228 0.0 0.0 0.00 0.00 0.00 35 1024.1
20260906032251 66 228 0.0 0.0 0.00 0.00 0.00 35 1024.1
20260906031250 65 229 0.9 2.6 0.00 0.00 0.00 35 1023.9
20260906030248 65 246 0.0 0.9 0.00 0.00 0.00 35 1023.9
20260906025247 66 300 0.0 0.0 0.00 0.00 0.00 34 1023.8
20260906024245 67 300 0.0 0.0 0.00 0.00 0.00 33 1023.6
20260906023244 68 110 0.0 2.6 0.00 0.00 0.00 31 1023.6
20260906022243 70 350 0.0 1.7 0.00 0.00 0.00 29 1023.4
20260906021241 71 215 0.0 0.9 0.00 0.00 0.00 27 1023.3
20260906020240 73 212 0.0 0.0 0.00 0.00 0.00 26 1023.2
20260906015239 75 212 0.0 1.7 0.00 0.00 0.00 24 1023.1
20260906014237 76 180 0.0 4.3 0.00 0.00 0.00 23 1022.9
20260906013236 77 233 0.0 2.6 0.00 0.00 0.00 22 1022.9
20260906012234 77 246 0.9 4.3 0.00 0.00 0.00 21 1022.9
20260906011233 78 145 0.0 2.6 0.00 0.00 0.00 20 1023.1
20260906010232 79 226 3.5 7.0 0.00 0.00 0.00 20 1022.9
20260906005230 79 243 3.5 9.6 0.00 0.00 0.00 19 1022.9
20260906004229 79 221 0.9 5.2 0.00 0.00 0.00 20 1022.9
20260906003227 80 293 1.7 8.7 0.00 0.00 0.00 20 1023.1
20260906002226 80 224 2.6 7.8 0.00 0.00 0.00 19 1022.9
20260906001225 80 298 2.6 6.1 0.00 0.00 0.00 19 1022.9
20260906000223 80 239 6.1 11.3 0.00 0.00 0.00 17 1022.9
20260905235222 81 243 0.0 7.8 0.00 0.00 0.00 16 1022.8
20260905234220 81 190 0.9 9.6 0.00 0.00 0.00 16 1022.8
20260905233219 82 215 4.3 12.2 0.00 0.00 0.00 16 1022.7
20260905232218 83 131 3.5 11.3 0.00 0.00 0.00 16 1022.7
20260905231216 83 179 0.9 7.8 0.00 0.00 0.00 17 1022.5
20260905230215 83 96 1.7 8.7 0.00 0.00 0.00 15 1022.7
20260905225214 82 239 2.6 6.1 0.00 0.00 0.00 17 1022.7
20260905224212 83 163 0.0 4.3 0.00 0.00 0.00 18 1022.7
20260905223211 83 232 2.6 8.7 0.00 0.00 0.00 18 1022.7
20260905222209 81 193 2.6 6.1 0.00 0.00 0.00 19 1022.9